Reflectivity
-20 -20 -20 -20 -20 -20 -20 -20 -20 -20 -20 -20 -20 -20 -20 -20 -20 -20 -20 -20 -20 -20 -20 -20 -20 -20 -20 -20 -20 -20 -20 -20 -20 -20 -20 -20 -20 -20 -20 -20 -20 -20 -20 -20 -20
-20 -20 -20 -20 -20 -20 -20 -20 -20 -20 -20 -20 -20 -20 -20 -20 -20 -20 -20 -20 -20 -20 -20 -20 -20 -20 -20 -20 -20 -20 -20 -20 -20 -20 -20 -20 -20 -20 -20 -20 -20 -20 -20 -20 -20
-20 -20 -20 -20 -20 -20 -20 -20 -20 -20 -20 -20 -20 -20 -20 -20 -20 -20 -20 -20 -20 -20 -20 -20 -20 -20 -20 -15 -20 -20 -20 -20 -20 -20 -20 -20 -20 -20 -20 -20 -20 -20 -17 -12 -20
-20 -20 -20 -20 -20 -20 -20 -20 -20 -20 -20 -20 -20 -20 -18 -20 -20 -20 -20 -20 -20 -20 -20 -20 -20 -20 -20 -2 -20 -20 -20 -20 -20 -20 -20 -20 -20 -20 -20 -20 -20 -20 -20 16 5
-20 -20 -20 -20 -20 -20 -20 -20 -20 -20 -20 -20 -20 -20 -20 -20 -20 -20 -20 -20 -20 -20 -20 -20 -20 -10 -20 -20 5 -20 -20 -20 -20 -20 -20 -20 -20 -20 -20 -20 -20 -20 -20 -20 16
-20 -20 -20 -20 -20 -20 -20 -20 -20 -20 -20 -20 -20 -20 -15 -20 -20 -20 -20 -20 -20 -20 -20 -20 -20 -20 25 -20 7 -20 -20 -20 -20 -20 -20 -20 -20 -20 -20 -20 -20 -20 -20 -20 18
-20 -20 -20 -20 -20 -20 -20 -20 -20 -20 -20 -20 -20 -20 -20 -20 -20 -20 -20 -20 -20 -20 -20 -20 -20 -19 20 -6 -20 -3 19 11 -20 -20 -20 -20 -20 -20 -20 -20 -20 -20 -20 8 14
-20 -20 -20 -20 -20 -20 -20 -20 -20 -20 -20 -20 -20 -20 -20 -20 -20 -20 -20 -20 -20 -20 -20 -20 -20 -14 -5 -14 19 10 32 -6 0 -20 -20 -20 -20 -20 -20 -20 -20 -20 -19 -4 13
-20 -20 -20 -20 -20 -20 -20 -20 -20 -20 -20 -20 -20 -20 -20 -20 -20 -20 -20 -20 -20 -20 -20 11 -20 -6 -15 7 18 7 -19 -20 -20 -20 -20 -20 -20 -20 -20 -20 -20 -20 -12 -20 18
-20 -20 -20 -20 -20 -20 -20 -20 -20 -20 -20 -20 -20 -20 -20 -20 -20 -20 -20 -20 -20 -20 -20 -13 25 9 -5 23 26 0 -20 -9 -20 -20 -20 -20 -20 -20 -20 -20 -20 -20 -20 -20 13
-20 -20 -20 -20 -20 -20 -20 -20 -20 -20 -20 -20 -20 -20 -20 -20 -20 -20 -20 -20 -20 -20 -20 -13 4 7 -20 -20 35 -14 -17 -20 -20 -20 -13 -20 -20 -20 -20 -20 -20 -20 -20 -20 -5
-20 -20 -20 -20 -20 -20 -20 -20 -20 -20 -19 -20 -20 -20 -20 -20 -20 -20 -20 -3 7 7 22 16 22 -20 -20 -20 4 8 -10 27 -16 22 -20 -20 -20 -20 -20 -20 -20 -20 -20 -20 -12
-20 -20 -20 -20 -20 -20 -20 -20 -20 -20 -20 -20 -20 -20 -20 -20 -20 -14 -19 11 15 -8 10 8 -9 19 -19 -10 -7 -19 -20 -20 10 -1 27 16 -20 -20 -20 -20 -20 -20 -20 -20 -20
-20 -20 -20 -20 -20 -20 -20 -20 -20 -20 -17 -20 -20 -20 -20 -20 -8 -20 -20 -14 0 11 2 6 -20 -18 -1 -17 14 22 15 37 23 19 -14 -20 -20 -13 -20 -20 -20 -20 -20 -20 -20
-20 -20 -20 -20 -20 -20 -20 -20 -20 -9 -20 -20 -20 -20 -20 8 -18 -5 -20 14 6 -9 8 22 19 -0 -20 -18 16 13 14 -12 29 18 -20 -2 7 -20 -20 -1 -20 -20 -20 -20 -20
-20 -20 -20 -20 -20 -20 -20 -20 -20 -4 -20 -20 -20 -20 -20 -20 -20 -20 -13 23 -5 -11 -20 -17 -3 -6 12 28 -7 21 31 30 32 21 8 -20 -20 -20 -20 -17 -20 -20 -20 -20 -16
-20 -20 -20 -20 -20 -20 -20 -20 -13 -20 -20 -20 -20 -20 -9 -20 -20 -9 -7 12 14 5 -0 15 -16 11 22 22 16 -3 -17 5 17 11 -20 -13 -20 -3 -20 -20 -20 -20 -20 -20 -8
-20 -20 -20 -20 -20 -20 -20 -20 -20 -20 -17 -20 -20 -20 8 -20 -20 -8 -20 -12 -14 7 -1 13 -16 -11 -20 -17 -20 -16 -20 -20 -5 0 -20 -20 -20 -20 -18 -15 -20 -20 -20 -20 -20
-20 -20 -20 -20 -20 -20 -20 -20 -20 -20 -20 -17 -20 -20 -18 -20 -20 -20 0 -11 -13 6 11 19 -7 -20 -20 -20 -20 -16 -20 -20 -20 6 -20 -20 -20 -20 -20 -20 -20 -20 -20 -20 -20
-20 -20 -20 -20 -20 -20 -20 -20 -20 -20 -20 -20 8 -13 -1 -20 -20 -13 -20 -20 -16 -6 27 -11 8 -5 -20 -17 -20 -20 -5 -20 -20 12 16 7 -10 -20 -20 -20 -20 -20 -20 -20 -20
-20 -20 -20 -20 -20 -20 -20 -20 -20 -20 -9 -3 -20 7 1 2 -19 6 -19 -1 -20 -17 -0 3 -1 -8 15 11 -14 -20 -20 -20 -20 -20 7 -20 -12 -20 -20 -20 -20 -20 -20 -20 -20
-20 -20 -20 -20 -20 -20 -20 -20 -20 -20 -20 -1 13 -8 2 -20 -20 11 4 -20 -20 -20 8 2 -20 -18 -20 -19 -20 -8 -20 -19 -20 -17 -20 -6 3 -20 -20 -20 -20 -20 -20 -20 -20
-20 -20 -20 -20 -20 -20 -20 -20 -20 -20 -20 -20 -20 2 -18 -20 -4 -20 -10 -19 -18 -20 9 -5 -19 -20 -20 -20 -20 18 -20 -20 -6 -1 -20 -20 -20 -20 -20 -20 -20 -20 -20 -20 -20
-20 -17 -20 -20 -20 -20 -20 -20 -20 -20 -20 -20 -20 -20 -14 -20 -20 -9 -20 -20 -20 -20 -20 -18 -20 -20 13 -2 -20 -19 -13 -20 -20 -6 6 -20 -20 -20 -20 -20 -20 -20 -20 -20 -20
-20 -20 -20 -15 -20 -20 -20 -20 -20 -20 -20 -20 -20 -20 5 -18 -20 -18 -20 -20 -20 -20 -20 -20 -20 -20 -20 -20 -20 -20 -20 -20 -20 -20 -14 -20 -20 -20 -20 -20 -20 -20 -20 -20 -20
-18 -20 -20 -20 -20 -20 -20 -20 -20 -20 -20 -20 -20 1 -2 -16 -2 -12 -1 -18 -2 -20 -20 -20 -20 -20 -20 -20 -20 -20 -20 -20 -20 -20 -20 -20 -20 -20 -20 -20 -20 -20 -20 -20 -20
-20 -20 -20 -19 -20 -20 -20 -20 -20 -20 -20 -20 -20 4 -15 -3 -7 -14 -20 -2 4 -20 -20 -20 -20 -20 0 -20 -20 -20 -20 -20 -20 -20 -20 -20 -20 -20 -20 -20 -20 -20 -20 -20 -20
Wind_Speed
19 20 21 21 22 22 22 22 22 22 22 21 21 21 21 22 23 19 17 11 4 7 8 9 11 13 14 12 11 10 6 13 16 16 10 15 2 4 5 2 3 5 5 18 19
20 20 21 22 23 23 24 24 24 23 22 22 22 21 21 21 20 21 12 3 5 4 6 11 13 15 15 12 10 15 12 17 9 12 12 12 1 3 2 3 5 10 17 20 20
21 21 22 23 24 25 25 25 25 24 22 21 21 21 19 16 15 4 9 9 7 5 11 12 15 16 20 18 19 19 22 12 15 15 3 7 8 6 5 5 8 13 16 19 17
20 21 23 24 24 25 26 26 26 25 24 22 21 18 13 10 6 8 6 3 7 13 11 14 14 16 18 25 20 21 22 20 20 12 3 2 6 8 3 2 8 14 22 15 17
20 21 23 24 25 26 27 27 26 25 24 22 20 13 8 7 11 15 1 4 9 11 13 15 16 17 22 20 19 23 24 18 17 21 3 4 8 6 5 7 6 21 19 16 13
21 21 23 24 26 27 28 28 27 26 25 21 13 10 11 15 2 7 6 8 12 12 12 12 14 15 16 22 23 21 21 16 17 14 8 7 7 5 5 6 10 15 13 16 13
21 22 23 24 26 27 28 29 28 25 22 15 11 8 12 16 11 8 8 9 9 10 12 12 9 2 9 16 19 21 19 17 17 12 7 7 10 8 6 8 10 10 12 14 11
22 22 23 25 26 27 28 29 27 24 17 13 7 6 7 7 5 9 10 14 11 11 12 8 10 8 7 9 11 13 21 12 12 15 13 11 11 9 11 10 10 11 12 14 11
23 23 24 25 26 27 27 29 28 20 13 18 7 8 9 4 4 12 10 13 13 14 12 12 9 14 10 13 8 15 9 15 16 16 8 11 4 11 13 11 11 11 12 12 8
22 23 24 26 27 25 25 29 19 4 8 4 6 7 5 13 14 17 8 8 13 12 13 14 7 10 9 9 7 10 14 14 17 14 15 12 8 12 15 12 11 14 13 11 8
23 24 25 27 26 24 17 7 8 2 11 6 19 13 17 14 11 13 7 8 11 8 10 13 5 10 14 13 13 12 15 21 19 18 16 16 12 15 5 5 6 12 16 13 10
23 24 26 28 25 19 9 7 7 5 13 18 18 16 17 9 16 13 6 11 8 13 10 6 6 13 13 13 16 17 16 11 3 5 9 10 12 10 9 6 8 6 14 17 12
22 24 24 27 24 10 7 11 8 3 6 9 4 5 10 9 15 11 9 9 10 13 13 12 8 7 16 14 11 15 15 10 7 14 14 10 6 9 8 7 7 11 9 8 16
22 23 24 24 6 10 4 12 7 1 4 6 8 4 13 18 7 6 7 4 3 7 10 9 8 9 9 13 15 9 10 6 3 12 6 7 4 6 11 6 7 11 7 8 8
22 24 25 17 7 6 9 9 3 1 4 14 9 8 21 12 16 5 3 2 7 10 6 4 2 5 5 5 8 4 6 4 0 6 6 3 5 6 9 10 10 10 10 8 8
21 24 20 4 5 7 9 7 1 2 4 11 11 21 21 15 12 10 8 1 4 6 8 10 2 6 2 9 19 16 10 6 2 2 2 6 6 6 11 11 8 10 13 11 8
22 22 10 6 6 10 7 3 3 5 14 13 15 18 21 15 10 12 9 12 6 6 2 3 5 3 5 8 6 5 5 3 2 1 4 2 4 3 5 7 4 13 14 11 8
22 23 3 2 6 5 4 3 7 8 6 13 13 23 10 18 10 10 12 12 6 12 5 2 3 11 11 6 1 3 2 4 2 3 2 0 5 1 9 8 5 9 15 12 8
21 2 3 6 6 3 3 5 3 5 11 13 19 7 7 15 10 10 12 9 10 12 8 6 4 1 7 6 5 2 1 2 3 2 4 4 5 4 8 8 6 8 9 8 8
6 3 3 11 6 2 3 3 5 8 9 7 6 7 11 14 11 11 13 11 16 12 7 5 1 4 3 4 5 5 2 3 3 1 2 3 4 2 6 8 8 6 5 4 8
3 3 4 11 3 4 3 4 5 9 9 5 6 7 10 11 7 6 8 2 14 16 10 7 3 1 2 5 3 3 3 4 0 3 2 1 1 2 1 2 8 8 5 4 4
3 2 6 8 4 2 3 2 5 8 8 4 4 8 5 14 5 6 8 3 8 14 9 4 4 3 5 3 4 3 4 3 4 5 1 3 1 4 3 3 8 7 6 4 4
3 3 5 5 3 3 4 4 5 7 6 5 4 8 10 6 5 7 10 5 11 12 9 7 3 1 1 1 1 1 3 4 6 1 1 3 0 5 5 6 6 8 6 4 4
2 2 3 3 2 2 3 4 7 5 4 7 6 6 10 6 8 6 11 9 13 9 15 7 1 2 3 2 2 3 3 2 1 1 3 2 6 6 6 7 5 6 5 5 4
2 1 1 1 2 2 0 1 6 7 5 5 4 8 7 4 6 5 6 9 12 12 8 5 4 3 2 4 2 1 1 4 3 3 4 1 6 5 4 6 5 6 5 5 2
1 2 1 1 1 1 3 1 5 5 2 5 4 12 8 4 3 9 9 4 3 9 8 8 3 2 2 4 5 3 6 5 4 4 7 8 5 6 5 6 4 4 4 3 2
1 0 2 3 2 2 2 2 3 4 4 5 6 10 8 6 10 10 6 6 6 3 4 5 3 4 2 3 3 4 3 4 2 4 4 2 2 4 4 6 4 3 3 2 3
Wind_Direction
8 4 0 357 354 351 349 345 343 341 338 333 329 326 324 322 314 306 288 270 322 347 327 290 273 219 260 217 218 223 244 235 229 243 264 274 217 79 25 129 74 54 37 117 129
3 1 358 355 351 347 343 341 338 336 334 331 326 325 323 322 309 294 298 148 15 6 278 246 245 216 220 228 223 216 222 243 242 233 250 273 321 163 106 207 90 80 94 123 131
0 357 354 351 348 343 339 336 333 330 329 326 323 322 318 313 299 108 64 65 27 303 271 262 262 243 225 221 221 225 235 225 246 267 345 348 330 312 151 259 171 152 141 148 139
357 355 350 346 343 339 335 332 327 325 325 322 321 317 311 291 296 113 108 44 325 305 301 276 246 257 248 224 222 236 231 245 272 257 255 200 296 293 209 291 332 158 147 156 162
355 352 347 343 339 335 331 327 322 322 322 319 315 306 304 242 248 292 198 313 294 291 288 282 288 229 241 244 222 236 235 238 229 258 197 266 261 262 286 77 20 118 136 154 166
353 348 345 340 336 333 328 322 319 321 322 317 312 301 272 276 301 341 329 294 285 294 286 275 263 283 272 235 242 227 242 238 258 250 194 219 232 163 229 129 120 127 140 157 155
348 346 342 338 334 331 326 320 316 322 320 318 303 273 287 259 305 313 314 277 280 276 276 285 275 250 298 267 247 248 239 224 236 242 224 180 251 188 173 150 136 146 150 154 142
346 344 341 337 334 331 325 316 312 313 310 304 311 266 256 297 303 293 305 313 292 245 251 278 271 228 239 295 294 212 246 226 215 226 221 187 232 227 154 154 156 158 157 148 147
344 342 339 336 334 330 322 312 303 303 297 295 248 210 285 151 275 344 318 305 299 292 273 271 260 248 262 233 243 250 210 230 231 212 177 191 194 254 161 164 165 146 136 138 134
343 340 337 336 334 330 317 304 304 302 332 233 251 279 232 323 338 312 280 300 299 286 269 255 255 224 229 226 231 205 199 206 222 229 202 206 214 263 162 166 166 150 134 142 139
341 338 336 335 333 329 325 333 4 195 5 291 291 286 283 320 314 297 20 307 298 261 266 241 204 226 231 240 253 228 202 214 196 220 184 207 191 240 162 165 190 152 147 146 147
341 338 336 334 330 328 330 35 38 270 311 291 259 257 263 275 308 327 359 340 300 296 256 247 238 233 227 224 242 256 261 264 75 117 160 193 218 210 171 185 191 170 135 143 124
339 337 335 330 323 313 346 31 354 7 287 294 281 316 317 303 302 322 4 314 293 287 278 265 239 303 239 232 213 249 247 272 210 179 219 186 231 214 162 159 111 68 125 126 137
338 337 337 334 322 329 55 359 4 102 293 24 1 56 332 320 342 64 28 19 284 289 291 266 303 244 267 240 190 210 215 265 280 161 179 144 234 240 164 118 131 115 133 117 123
338 337 334 332 300 337 340 336 6 168 19 335 345 3 329 330 334 50 48 304 282 292 320 327 188 199 252 259 227 214 122 111 64 203 105 231 83 237 194 176 175 151 139 124 101
337 336 338 356 284 16 332 309 197 246 334 334 338 336 339 354 349 4 14 68 285 302 279 270 341 159 186 240 194 154 129 88 291 104 132 211 136 238 190 190 168 144 132 127 128
334 331 324 305 325 327 315 268 309 42 354 342 333 332 318 0 343 17 341 358 25 315 178 78 26 33 31 114 96 114 135 86 131 62 192 303 142 223 64 35 49 147 125 117 135
332 318 255 342 333 324 295 276 47 25 352 317 323 309 7 14 344 358 351 6 48 7 310 1 107 359 338 21 2 191 158 109 126 178 142 16 215 187 79 60 58 70 104 113 135
324 300 264 339 329 310 312 33 15 7 340 323 318 356 343 9 342 347 11 23 3 4 352 348 70 22 17 6 345 121 14 93 111 191 98 190 90 77 120 102 75 71 101 125 135
325 296 53 333 329 267 28 83 5 10 345 334 332 343 356 354 349 356 10 37 354 349 330 306 166 49 338 292 12 33 78 60 339 125 186 247 135 142 170 149 125 116 93 96 123
261 297 9 339 328 31 59 8 341 339 14 334 334 306 359 353 316 342 5 357 0 339 336 341 306 23 270 11 9 25 27 37 50 112 99 156 51 345 338 351 146 152 140 118 104
283 303 7 339 55 353 32 339 323 334 359 359 284 316 353 328 306 332 15 6 315 353 350 343 304 48 59 80 89 39 298 79 113 336 260 116 300 73 93 51 114 126 125 115 98
342 338 44 356 54 14 338 11 348 343 342 2 309 329 343 306 327 349 355 345 6 13 359 340 23 306 99 336 171 175 329 103 120 217 343 83 343 97 94 72 73 116 114 110 105
318 323 56 51 187 316 359 2 350 357 313 332 292 330 332 328 339 299 1 347 332 19 352 328 75 64 27 343 264 12 35 354 60 92 344 350 121 82 99 103 92 91 106 122 130
348 64 24 37 81 93 52 289 349 8 343 328 343 357 353 303 310 17 2 323 330 7 352 40 8 12 55 4 360 29 21 19 47 62 103 289 98 67 61 115 132 137 122 122 158
296 219 176 51 354 339 174 264 338 347 273 312 353 326 322 290 6 318 331 348 354 338 350 343 349 343 279 94 356 70 53 64 9 63 72 104 78 100 112 108 84 136 143 163 164
106 124 335 127 178 261 133 254 287 15 279 242 290 307 311 1 321 291 276 279 282 331 320 328 347 1 69 63 338 50 296 350 46 11 350 73 71 122 83 72 71 75 99 121 136